TITAN 3C TRANSTAGE DEB, 26529

Orbit data source: Space-Track

TITAN 3C TRANSTAGE DEB, 26529 is space debris in HEO originally from a launch on Tue, 21 Dec 1965 UTC launched from the Air Force Eastern Test Range (AFETR). Debris objects in space refer to the collection of defunct objects orbiting the Earth. Examples of debris include non-operational satellites, rocket bodies, and fragments generated from explosions, collisions, or faulty payload assembly.

Loading next visibility...
Identifier
26529, 1965-108AQ
Orbit
HEO
Country
Flag of USUS
Related business
Manufacturer
Unknown
Mission
Spacecraft
Bus & Motor
Unknown
Mass
Unknown
Launch date (UTC)
1965-12-21 (60 years ago)
Launch vehicle
Unknown
Launch site
Air Force Eastern Test Range (AFETR)
Object type
Payload
Rocket body
Debris
Shape & HBR
Unknown shape, 0.1 m
Radar Cross Section
Medium (>0.1 m² and <1 m²)

Expand to show TLE details & history
Last TLE update: 1 month ago

TLE from 1 month ago
0 TITAN 3C TRANSTAGE DEB
1 26529U 65108AQ  25252.19136875 -.00000222  00000-0 -20416-2 0  9993
2 26529  26.3984 153.9304 6814718 223.0250 342.1889  2.65515012 34359
Epoch: 2025-09-09T04:35Z
TLE epoch observation values (Epoch: 2025-09-09T04:35:34.259Z)
Latitude
18.50323°
Longitude
-125.45039°
Altitude
5,159.752 km
Speed
7.142 km/s
True Right ascension
19h 27m 42s
True Declination
18° 26' 22"
Sunlit
Object was in daylight at epoch
Visualization orbit readout
Latitude
Unknown
Longitude
Unknown
Altitude
Unknown
Speed
Unknown
Apparent Right ascension
Unknown
Apparent Declination
Unknown
Sunlit
N/A
Visualization observer readout
Local Sidereal Time
16:01:46
Azimuth
Unknown
Elevation
Unknown
Doppler factor
Unknown
Orbital elements
Apogee altitude
30,670.285 km
Perigee altitude
640.1 km
Semi-major axis
22,033.329 km
Eccentricity
0.68147
Inclination
26.3984°
RAAN
153.9304°
Arg. of periapsis
223.025°
True anomaly
271.70475°
Mean anomaly
342.1889°
Eccentric anomaly
314.1939°
Mean motion
0.66363 °/min
Orbital period
542.47 mins
BSTAR
-0.0020416
Loading maneuver chart data...
Computing Atmospheric mass density...

Documentation

Showing up to 5 results
|